Volver al catálogo

STARLINK-31017

ActivoComunicacionesVLEO
NORAD 58515·PAYLOAD·🇺🇸 United States

Lanzado Dec 7, 2023 desde Cape Canaveral Space Force Station

Loading…

Próximos Pases (próximas 24 horas)

TLE

ActualizadoSource: CelesTrak SupGP

Época: Sep 14, 2026, 21:06 UTC

1 58515C 23191H   26257.87965278  .00040604  00000+0  14708-2 0  2576
2 58515  43.0026 242.7168 0001368 263.3023  81.9192 15.27554771    13

Sigue STARLINK-31017 en tiempo real con AllMySat

Download on the App Store